Location: Ergnies
(50.0854°N, 2.0375°E)
Time: 13:56:51
(UTC+00:00)

YAOGAN 1 - Visible Passes

Search period start: 11 April 2026 00:00
Search period end: 21 April 2026 00:00
Orbit: 604 x 606 km, 97.8° (Epoch: 11 April)

Date Brightness Start Highest point End Pass type
(mag) Time Alt. Az. Time Alt. Az. Time Alt. Az.
13 Apr 5.4 19:19:19 10° SW 19:22:23 19° W 19:25:28 10° NW visible
14 Apr 5.6 19:32:49 10° WSW 19:35:13 15° W 19:37:38 10° NW visible
15 Apr 5.9 19:46:55 10° WSW 19:48:06 11° W 19:49:16 10° WNW visible
